Artesia, NM

9:37 AM MDT on June 25, 2017 (GMT -0600)
Artesia Municipal

Weather History for KATS - February, 2014

Change the Weather History Date:

Tuesday, February 25, 2014

  Actual Average Record
Temperature  
Mean Temperature 44 °F -  
Max Temperature 53 °F 66 °F 82 °F (1954)
Min Temperature 35 °F 28 °F 5 °F (1960)
Degree Days  
Heating Degree Days 21    
Moisture  
Dew Point 27 °F    
Average Humidity 48    
Maximum Humidity 76    
Minimum Humidity 30    
Precipitation  
Precipitation 0.00 in - - ()
Sea Level Pressure  
Sea Level Pressure 30.05 in    
Wind  
Wind Speed 9 mph (SE)    
Max Wind Speed 26 mph    
Max Gust Speed 36 mph    
Visibility 10 miles    
Events      
Averages and records for this station are not official NWS values.
T = Trace of Precipitation, MM = Missing Value Source: NWS Daily Summary

Daily Weather History Graph

Daily Weather History Graph

Search for Another Location

Airport or City:

Trip Planner

Search our weather history database for the weather conditions in past years. The results will help you decide how hot, cold, wet, or windy it might be!

Date:

Astronomy

Feb. 25, 2014 Rise Set
Actual Time 6:30 AM MST 5:51 PM MST
Civil Twilight 6:05 AM MST 6:16 PM MST
Nautical Twilight 5:36 AM MST 6:45 PM MST
Astronomical Twilight 5:08 AM MST 7:14 PM MST
Moon 3:18 AM MST 2:08 PM MST
Length of Visible Light 12h 11m
Length of Day
11h 21m
Waning Crescent, 17% of the Moon is Illuminated
Feb 25
Waning Crescent
Mar 1
New
Mar 8
First Quarter
Mar 16
Full
Mar 23
Last Quarter

Hourly Weather History & Observations

Time (MST) Temp. Windchill Dew Point Humidity Pressure Visibility Wind Dir Wind Speed Gust Speed Precip Events Conditions
12:20 AM 53.6 °F - 23.0 °F 30% 30.01 in 10.0 mi South 5.8 mph - N/A   Clear
12:30 AM 51.8 °F - 23.0 °F 33% 30.01 in 10.0 mi South 5.8 mph - N/A   Clear
12:55 AM 53.6 °F - 23.0 °F 30% 30.00 in 10.0 mi SSW 5.8 mph - N/A   Clear
1:15 AM 50.0 °F - 23.0 °F 35% 30.00 in 10.0 mi Calm Calm - N/A   Clear
2:55 AM 50.0 °F - 23.0 °F 35% 29.99 in 10.0 mi South 3.5 mph - N/A   Clear
3:15 AM 48.2 °F - 23.0 °F 37% 29.99 in 10.0 mi Calm Calm - N/A   Clear
3:35 AM 50.0 °F - 23.0 °F 35% 29.98 in 10.0 mi Calm Calm - N/A   Clear
3:55 AM 48.2 °F - 23.0 °F 37% 29.99 in 10.0 mi SW 4.6 mph - N/A   Clear
4:15 AM 48.2 °F - 23.0 °F 37% 30.00 in 10.0 mi WSW 5.8 mph - N/A   Clear
4:35 AM 48.2 °F - 24.8 °F 40% 30.00 in 10.0 mi North 9.2 mph - N/A   Clear
4:55 AM 48.2 °F - 24.8 °F 40% 30.01 in 10.0 mi NW 9.2 mph - N/A   Clear
5:15 AM 50.0 °F - 21.2 °F 32% 30.03 in 10.0 mi NNW 17.3 mph - N/A   Clear
5:35 AM 48.2 °F - 17.6 °F 30% 30.04 in 10.0 mi NNW 23.0 mph 27.6 mph N/A   Clear
5:55 AM 46.4 °F 37.9 °F 23.0 °F 40% 30.06 in 10.0 mi North 25.3 mph 32.2 mph N/A   Clear
6:15 AM 41.0 °F 30.5 °F 23.0 °F 49% 30.09 in 8.0 mi North 26.5 mph 35.7 mph N/A   Clear
6:35 AM 39.2 °F 28.0 °F 23.0 °F 52% 30.10 in 8.0 mi North 26.5 mph 33.4 mph N/A   Clear
6:55 AM 37.4 °F 26.1 °F 21.2 °F 52% 30.12 in 7.0 mi North 24.2 mph 34.5 mph N/A   Clear
7:15 AM 37.4 °F 26.1 °F 21.2 °F 52% 30.14 in 8.0 mi North 24.2 mph 32.2 mph N/A   Clear
7:35 AM 37.4 °F 26.4 °F 21.2 °F 52% 30.15 in 10.0 mi North 23.0 mph 29.9 mph N/A   Clear
7:55 AM 35.6 °F 23.4 °F 21.2 °F 56% 30.16 in 10.0 mi North 25.3 mph 31.1 mph N/A   Clear
8:15 AM 35.6 °F 24.8 °F 21.2 °F 56% 30.18 in 10.0 mi North 19.6 mph 27.6 mph N/A   Clear
8:35 AM 35.6 °F 25.9 °F 21.2 °F 56% 30.21 in 10.0 mi North 16.1 mph 24.2 mph N/A   Clear
8:55 AM 35.6 °F 25.5 °F 23.0 °F 60% 30.21 in 10.0 mi North 17.3 mph - N/A   Clear
9:15 AM 37.4 °F 27.8 °F 23.0 °F 56% 30.21 in 10.0 mi North 17.3 mph - N/A   Clear
9:40 AM 37.4 °F 28.5 °F 23.0 °F 56% 30.20 in 10.0 mi North 15.0 mph 21.9 mph N/A   Clear
9:50 AM 37.4 °F 28.9 °F 24.8 °F 60% 30.20 in 10.0 mi North 13.8 mph - N/A   Clear
10:20 AM 39.2 °F 31.2 °F 24.8 °F 56% 30.19 in 10.0 mi North 13.8 mph 17.3 mph N/A   Clear
10:35 AM 39.2 °F 32.5 °F 24.8 °F 56% 30.19 in 10.0 mi North 10.4 mph 16.1 mph N/A   Clear
10:55 AM 39.2 °F 33.0 °F 24.8 °F 56% 30.19 in 10.0 mi North 9.2 mph - N/A   Clear
11:15 AM 41.0 °F 34.7 °F 26.6 °F 57% 30.17 in 10.0 mi North 10.4 mph - N/A   Clear
11:35 AM 41.0 °F 34.7 °F 26.6 °F 57% 30.16 in 10.0 mi North 10.4 mph - N/A   Clear
11:55 AM 42.8 °F 38.6 °F 28.4 °F 57% 30.14 in 9.0 mi North 6.9 mph - N/A   Clear
12:15 PM 44.6 °F 40.7 °F 28.4 °F 53% 30.12 in 10.0 mi NE 6.9 mph - N/A   Clear
12:35 PM 46.4 °F 42.9 °F 28.4 °F 50% 30.10 in 10.0 mi NE 6.9 mph - N/A   Clear
12:55 PM 46.4 °F 44.3 °F 28.4 °F 50% 30.08 in 10.0 mi NNE 4.6 mph - N/A   Clear
1:15 PM 46.4 °F 45.2 °F 28.4 °F 50% 30.06 in 10.0 mi ENE 3.5 mph - N/A   Clear
1:35 PM 48.2 °F - 28.4 °F 46% 30.04 in 10.0 mi NE 3.5 mph - N/A   Clear
1:55 PM 48.2 °F - 28.4 °F 46% 30.02 in 10.0 mi ENE 3.5 mph - N/A   Clear
2:15 PM 50.0 °F - 28.4 °F 43% 30.01 in 10.0 mi Calm Calm - N/A   Clear
2:35 PM 50.0 °F - 28.4 °F 43% 30.01 in 10.0 mi SSE 3.5 mph - N/A   Clear
2:55 PM 51.8 °F - 28.4 °F 41% 29.99 in 10.0 mi ESE 3.5 mph - N/A   Clear
3:15 PM 51.8 °F - 28.4 °F 41% 29.98 in 10.0 mi Calm Calm - N/A   Clear
3:35 PM 51.8 °F - 30.2 °F 44% 29.98 in 10.0 mi SE 5.8 mph - N/A   Clear
3:55 PM 53.6 °F - 30.2 °F 41% 29.97 in 10.0 mi SSE 4.6 mph - N/A   Clear
4:15 PM 53.6 °F - 28.4 °F 38% 29.97 in 10.0 mi South 6.9 mph - N/A   Clear
4:35 PM 53.6 °F - 28.4 °F 38% 29.97 in 10.0 mi SSE 9.2 mph - N/A   Clear
4:55 PM 53.6 °F - 28.4 °F 38% 29.97 in 10.0 mi South 6.9 mph - N/A   Clear
5:15 PM 53.6 °F - 28.4 °F 38% 29.97 in 10.0 mi South 6.9 mph - N/A   Clear
5:35 PM 53.6 °F - 28.4 °F 38% 29.97 in 10.0 mi South 8.1 mph - N/A   Clear
5:55 PM 51.8 °F - 26.6 °F 38% 29.98 in 10.0 mi South 9.2 mph - N/A   Clear
6:15 PM 50.0 °F - 26.6 °F 40% 29.99 in 10.0 mi South 6.9 mph - N/A   Clear
6:35 PM 50.0 °F - 26.6 °F 40% 29.99 in 10.0 mi South 8.1 mph - N/A   Clear
6:55 PM 48.2 °F - 26.6 °F 43% 30.00 in 10.0 mi SSE 4.6 mph - N/A   Clear
7:15 PM 48.2 °F - 26.6 °F 43% 30.00 in 10.0 mi South 6.9 mph - N/A   Clear
7:35 PM 48.2 °F - 26.6 °F 43% 30.01 in 10.0 mi South 5.8 mph - N/A   Clear
7:55 PM 46.4 °F 44.3 °F 26.6 °F 46% 30.01 in 10.0 mi South 4.6 mph - N/A   Clear
8:20 PM 46.4 °F 43.5 °F 26.6 °F 46% 30.01 in 10.0 mi South 5.8 mph - N/A   Clear
8:35 PM 46.4 °F 43.5 °F 26.6 °F 46% 30.01 in 10.0 mi South 5.8 mph - N/A   Clear
8:55 PM 48.2 °F - 26.6 °F 43% 30.01 in 10.0 mi South 6.9 mph - N/A   Clear
9:15 PM 48.2 °F - 26.6 °F 43% 30.01 in 10.0 mi South 8.1 mph - N/A   Clear
9:35 PM 48.2 °F - 30.2 °F 50% 30.01 in 10.0 mi SSE 12.7 mph - N/A   Clear
9:55 PM 48.2 °F - 35.6 °F 62% 30.01 in 10.0 mi SSE 11.5 mph - N/A   Clear
10:15 PM 48.2 °F - 37.4 °F 66% 30.01 in 8.0 mi SSE 15.0 mph - N/A   Clear
10:35 PM 46.4 °F 40.4 °F 37.4 °F 71% 30.01 in 8.0 mi SSE 13.8 mph - N/A   Clear
10:55 PM 46.4 °F 41.1 °F 37.4 °F 71% 30.02 in 8.0 mi SSE 11.5 mph - N/A   Clear
11:15 PM 46.4 °F 40.1 °F 37.4 °F 71% 30.01 in 8.0 mi SSE 15.0 mph 20.7 mph N/A   Clear
11:35 PM 46.4 °F 39.8 °F 39.2 °F 76% 30.01 in 9.0 mi SSE 16.1 mph 19.6 mph N/A   Clear
11:55 PM 46.4 °F 39.5 °F 39.2 °F 76% 30.02 in 9.0 mi SE 17.3 mph 23.0 mph N/A   Clear